status,avgMeasuredTime,avgSpeed,extID,medianMeasuredTime,TIMESTAMP,vehicleCount,_id,REPORT_ID
OK,86,62,874,86,2014-08-01T08:00:00,0,20746929,195259
OK,73,73,874,73,2014-08-01T08:05:00,1,20747378,195259
OK,83,64,874,83,2014-08-01T08:10:00,2,20747751,195259
OK,94,57,874,94,2014-08-01T08:15:00,1,20748200,195259
OK,91,59,874,91,2014-08-01T08:20:00,1,20748649,195259
OK,91,59,874,91,2014-08-01T08:25:00,1,20749098,195259
OK,93,57,874,93,2014-08-01T08:30:00,2,20749547,195259
OK,93,57,874,93,2014-08-01T08:35:00,2,20749996,195259
OK,96,56,874,96,2014-08-01T08:40:00,1,20750445,195259
OK,96,56,874,96,2014-08-01T08:45:00,1,20750894,195259
OK,108,49,874,108,2014-08-01T08:50:00,1,20751343,195259
OK,108,49,874,108,2014-08-01T08:55:00,1,20751792,195259
OK,108,49,874,108,2014-08-01T09:00:00,0,20752241,195259
OK,108,49,874,108,2014-08-01T09:05:00,0,20752690,195259
OK,108,49,874,108,2014-08-01T09:10:00,0,20753139,195259
OK,108,49,874,108,2014-08-01T09:15:00,0,20753588,195259
OK,108,49,874,108,2014-08-01T09:20:00,0,20754037,195259
OK,115,46,874,115,2014-08-01T09:25:00,1,20754486,195259
OK,115,46,874,115,2014-08-01T09:30:00,3,20754935,195259
OK,113,47,874,113,2014-08-01T09:35:00,2,20755384,195259
OK,96,56,874,96,2014-08-01T09:40:00,2,20755833,195259
OK,88,61,874,88,2014-08-01T09:45:00,1,20756282,195259
OK,88,61,874,88,2014-08-01T09:50:00,0,20756731,195259
OK,107,50,874,107,2014-08-01T09:55:00,1,20757180,195259
OK,107,50,874,107,2014-08-01T10:00:00,1,20757629,195259
OK,101,53,874,101,2014-08-01T10:05:00,3,20758078,195259
OK,90,59,874,90,2014-08-01T10:10:00,3,20758527,195259
OK,90,59,874,90,2014-08-01T10:15:00,1,20758976,195259
OK,90,59,874,90,2014-08-01T10:20:00,0,20759425,195259
OK,90,59,874,90,2014-08-01T10:25:00,0,20759874,195259
OK,90,59,874,90,2014-08-01T10:30:00,0,20760323,195259
OK,100,53,874,100,2014-08-01T10:35:00,1,20760772,195259
OK,98,54,874,98,2014-08-01T10:40:00,2,20761221,195259
OK,98,54,874,98,2014-08-01T10:45:00,1,20761670,195259
OK,98,54,874,98,2014-08-01T10:50:00,5,20762119,195259
OK,97,55,874,97,2014-08-01T10:55:00,5,20762568,195259
OK,82,65,874,82,2014-08-01T11:00:00,1,20763017,195259
OK,82,65,874,82,2014-08-01T11:05:00,0,20763466,195259
OK,99,54,874,99,2014-08-01T11:10:00,1,20763915,195259
OK,99,54,874,99,2014-08-01T11:15:00,0,20764363,195259
OK,95,56,874,95,2014-08-01T11:20:00,3,20764812,195259
OK,94,57,874,94,2014-08-01T11:25:00,4,20765261,195259
OK,86,62,874,86,2014-08-01T11:30:00,1,20765710,195259
OK,86,62,874,86,2014-08-01T11:35:00,0,20766159,195259
OK,86,62,874,86,2014-08-01T11:40:00,0,20766608,195259
OK,100,53,874,100,2014-08-01T11:45:00,2,20767057,195259
OK,96,56,874,96,2014-08-01T11:50:00,3,20767506,195259
OK,86,62,874,86,2014-08-01T11:55:00,1,20767955,195259
OK,87,61,874,87,2014-08-01T12:00:00,1,20768404,195259
OK,100,53,874,100,2014-08-01T12:05:00,2,20768853,195259
OK,102,52,874,102,2014-08-01T12:10:00,4,20769302,195259
OK,95,56,874,95,2014-08-01T12:15:00,3,20769751,195259
OK,96,56,874,96,2014-08-01T12:20:00,2,20770200,195259
OK,98,54,874,98,2014-08-01T12:25:00,0,20770649,195259
OK,120,44,874,120,2014-08-01T12:30:00,1,20771098,195259
OK,120,44,874,120,2014-08-01T12:35:00,1,20771547,195259
OK,120,44,874,120,2014-08-01T12:40:00,0,20771996,195259
OK,95,56,874,95,2014-08-01T12:45:00,2,20772445,195259
OK,107,50,874,107,2014-08-01T12:50:00,3,20772894,195259
OK,120,44,874,120,2014-08-01T12:55:00,2,20773343,195259
OK,124,43,874,124,2014-08-01T13:00:00,0,20773792,195259
OK,124,43,874,124,2014-08-01T13:05:00,0,20774241,195259
OK,98,54,874,98,2014-08-01T13:10:00,1,20774690,195259
OK,102,52,874,102,2014-08-01T13:15:00,2,20775139,195259
OK,107,50,874,107,2014-08-01T13:20:00,1,20775588,195259
OK,107,50,874,107,2014-08-01T13:25:00,0,20776037,195259
OK,90,59,874,90,2014-08-01T13:30:00,2,20776486,195259
OK,90,59,874,90,2014-08-01T13:35:00,2,20776935,195259
OK,90,59,874,90,2014-08-01T13:40:00,0,20777384,195259
OK,90,59,874,90,2014-08-01T13:45:00,0,20777833,195259
OK,115,46,874,115,2014-08-01T13:50:00,1,20778282,195259
OK,96,56,874,96,2014-08-01T13:55:00,1,20778731,195259
OK,95,56,874,95,2014-08-01T14:00:00,1,20779180,195259
OK,108,49,874,108,2014-08-01T14:05:00,2,20779629,195259
OK,108,49,874,108,2014-08-01T14:10:00,2,20780078,195259
OK,118,45,874,118,2014-08-01T14:15:00,0,20780527,195259
OK,118,45,874,118,2014-08-01T14:20:00,0,20780976,195259
OK,118,45,874,118,2014-08-01T14:25:00,0,20781425,195259
OK,103,52,874,103,2014-08-01T14:30:00,1,20781874,195259
OK,98,54,874,98,2014-08-01T14:35:00,2,20782323,195259
OK,96,56,874,96,2014-08-01T14:40:00,2,20782772,195259
OK,121,44,874,121,2014-08-01T14:45:00,3,20783221,195259
OK,123,43,874,123,2014-08-01T14:50:00,2,20783670,195259
OK,192,28,874,192,2014-08-01T14:55:00,1,20784119,195259
OK,192,28,874,192,2014-08-01T15:00:00,1,20784568,195259
OK,192,28,874,192,2014-08-01T15:05:00,0,20785017,195259
OK,192,28,874,192,2014-08-01T15:10:00,0,20785466,195259
OK,87,61,874,87,2014-08-01T15:15:00,1,20785915,195259
OK,87,61,874,87,2014-08-01T15:20:00,3,20786364,195259
OK,91,59,874,91,2014-08-01T15:25:00,2,20786813,195259
OK,94,57,874,94,2014-08-01T15:30:00,1,20787262,195259
OK,94,57,874,94,2014-08-01T15:35:00,0,20787711,195259
OK,104,51,874,104,2014-08-01T15:40:00,1,20788160,195259
OK,92,58,874,92,2014-08-01T15:45:00,2,20788609,195259
OK,85,63,874,85,2014-08-01T15:50:00,4,20789058,195259
OK,66,81,874,66,2014-08-01T15:55:00,3,20789507,195259
OK,88,61,874,88,2014-08-01T16:00:00,1,20789956,195259
OK,91,59,874,91,2014-08-01T16:05:00,2,20790405,195259
OK,95,56,874,95,2014-08-01T16:10:00,0,20790854,195259
OK,95,56,874,95,2014-08-01T16:15:00,0,20791303,195259
OK,95,56,874,95,2014-08-01T16:20:00,0,20791752,195259
OK,95,56,874,95,2014-08-01T16:25:00,0,20792201,195259
OK,95,56,874,95,2014-08-01T16:30:00,0,20792650,195259
OK,95,56,874,95,2014-08-01T16:35:00,0,20793099,195259
OK,84,64,874,84,2014-08-01T16:40:00,2,20793548,195259
OK,84,64,874,84,2014-08-01T16:45:00,2,20793997,195259
OK,83,64,874,83,2014-08-01T16:50:00,0,20794446,195259
OK,83,64,874,83,2014-08-01T16:55:00,0,20794895,195259
OK,83,64,874,83,2014-08-01T17:00:00,0,20795344,195259
OK,83,64,874,83,2014-08-01T17:05:00,0,20795793,195259
OK,83,64,874,83,2014-08-01T17:10:00,0,20796242,195259
OK,83,64,874,83,2014-08-01T17:15:00,0,20796691,195259
OK,83,64,874,83,2014-08-01T17:20:00,0,20797140,195259
OK,98,54,874,98,2014-08-01T17:25:00,1,20797589,195259
OK,88,61,874,88,2014-08-01T17:30:00,1,20798038,195259
OK,88,61,874,88,2014-08-01T17:35:00,0,20798487,195259
OK,88,61,874,88,2014-08-01T17:40:00,0,20798936,195259
OK,88,61,874,88,2014-08-01T17:45:00,0,20799385,195259
OK,89,60,874,89,2014-08-01T17:50:00,1,20799834,195259
OK,89,60,874,89,2014-08-01T17:55:00,0,20800283,195259
OK,89,60,874,89,2014-08-01T18:00:00,0,20800732,195259
OK,89,60,874,89,2014-08-01T18:05:00,0,20801181,195259
OK,89,60,874,89,2014-08-01T18:10:00,0,20801630,195259
OK,89,60,874,89,2014-08-01T18:15:00,0,20802079,195259
OK,89,60,874,89,2014-08-01T18:20:00,0,20802528,195259
OK,89,60,874,89,2014-08-01T18:25:00,0,20802977,195259
OK,89,60,874,89,2014-08-01T18:30:00,0,20803426,195259
OK,89,60,874,89,2014-08-01T18:35:00,0,20803875,195259
OK,89,60,874,89,2014-08-01T18:40:00,0,20804324,195259
OK,89,60,874,89,2014-08-01T18:45:00,0,20804773,195259
OK,98,54,874,98,2014-08-01T18:50:00,1,20805222,195259
OK,98,54,874,98,2014-08-01T18:55:00,0,20805671,195259
OK,98,54,874,98,2014-08-01T19:00:00,0,20806120,195259
OK,98,54,874,98,2014-08-01T19:05:00,0,20806569,195259
OK,98,54,874,98,2014-08-01T19:10:00,0,20807018,195259
OK,99,54,874,99,2014-08-01T19:15:00,1,20807467,195259
OK,99,54,874,99,2014-08-01T19:20:00,1,20807916,195259
OK,99,54,874,99,2014-08-01T19:25:00,0,20808365,195259
OK,108,49,874,108,2014-08-01T19:30:00,1,20808814,195259
OK,108,49,874,108,2014-08-01T19:35:00,0,20809263,195259
OK,90,59,874,90,2014-08-01T19:40:00,1,20809712,195259
OK,90,59,874,90,2014-08-01T19:45:00,1,20810161,195259
OK,78,68,874,78,2014-08-01T19:50:00,1,20810610,195259
OK,92,58,874,92,2014-08-01T19:55:00,3,20811059,195259
OK,93,57,874,93,2014-08-01T22:00:00,0,20816788,195259
OK,93,57,874,93,2014-08-01T22:05:00,0,20817237,195259
OK,84,64,874,84,2014-08-02T00:00:00,0,20823227,195259
OK,84,64,874,84,2014-08-02T00:05:00,0,20823676,195259
OK,84,64,874,84,2014-08-02T00:10:00,0,20824125,195259
OK,84,64,874,84,2014-08-02T00:15:00,0,20824574,195259
OK,84,64,874,84,2014-08-02T00:20:00,0,20825023,195259
OK,84,64,874,84,2014-08-02T00:25:00,0,20825472,195259
OK,84,64,874,84,2014-08-02T00:30:00,0,20825921,195259
OK,84,64,874,84,2014-08-02T00:35:00,0,20826370,195259
OK,84,64,874,84,2014-08-02T00:40:00,0,20826819,195259
OK,84,64,874,84,2014-08-02T00:45:00,0,20827268,195259
OK,84,64,874,84,2014-08-02T00:50:00,0,20827717,195259
OK,84,64,874,84,2014-08-02T00:55:00,0,20828166,195259
OK,84,64,874,84,2014-08-02T01:00:00,0,20828615,195259
OK,84,64,874,84,2014-08-02T01:05:00,0,20829064,195259
OK,84,64,874,84,2014-08-02T01:10:00,0,20829513,195259
OK,84,64,874,84,2014-08-02T01:15:00,0,20829962,195259
OK,84,64,874,84,2014-08-02T01:20:00,0,20830411,195259
OK,84,64,874,84,2014-08-02T01:25:00,0,20830860,195259
OK,84,64,874,84,2014-08-02T01:30:00,0,20831309,195259
OK,84,64,874,84,2014-08-02T01:35:00,0,20831758,195259
OK,84,64,874,84,2014-08-02T01:40:00,0,20832207,195259
OK,84,64,874,84,2014-08-02T01:45:00,0,20832656,195259
OK,84,64,874,84,2014-08-02T01:50:00,0,20833105,195259
OK,84,64,874,84,2014-08-02T01:55:00,0,20833554,195259
OK,84,64,874,84,2014-08-02T02:00:00,0,20834003,195259
OK,84,64,874,84,2014-08-02T02:05:00,0,20834452,195259
OK,84,64,874,84,2014-08-02T02:10:00,0,20834901,195259
OK,84,64,874,84,2014-08-02T02:15:00,0,20835350,195259
OK,84,64,874,84,2014-08-02T02:20:00,0,20835799,195259
OK,84,64,874,84,2014-08-02T02:25:00,0,20836248,195259
OK,84,64,874,84,2014-08-02T02:30:00,0,20836697,195259
OK,84,64,874,84,2014-08-02T02:35:00,0,20837146,195259
OK,84,64,874,84,2014-08-02T02:40:00,0,20837595,195259
OK,84,64,874,84,2014-08-02T02:45:00,0,20838044,195259
OK,84,64,874,84,2014-08-02T02:50:00,0,20838493,195259
OK,84,64,874,84,2014-08-02T02:55:00,0,20838942,195259
OK,84,64,874,84,2014-08-02T03:00:00,0,20839391,195259
OK,84,64,874,84,2014-08-02T03:05:00,0,20839840,195259
OK,84,64,874,84,2014-08-02T03:10:00,0,20840289,195259
OK,84,64,874,84,2014-08-02T03:15:00,0,20840738,195259
OK,84,64,874,84,2014-08-02T03:20:00,0,20841187,195259
OK,84,64,874,84,2014-08-02T03:25:00,0,20841636,195259
OK,84,64,874,84,2014-08-02T03:30:00,0,20842085,195259
OK,84,64,874,84,2014-08-02T03:35:00,0,20842534,195259
OK,84,64,874,84,2014-08-02T03:40:00,0,20842983,195259
OK,84,64,874,84,2014-08-02T03:45:00,0,20843432,195259
OK,84,64,874,84,2014-08-02T03:50:00,0,20843881,195259
OK,84,64,874,84,2014-08-02T03:55:00,0,20844330,195259
OK,99,54,874,99,2014-08-02T06:00:00,0,20851784,195259
OK,99,54,874,99,2014-08-02T06:05:00,0,20852233,195259
OK,99,54,874,99,2014-08-02T06:10:00,0,20852682,195259
OK,99,54,874,99,2014-08-02T06:15:00,0,20853131,195259
OK,83,64,874,83,2014-08-02T06:20:00,1,20853580,195259
OK,88,61,874,88,2014-08-02T06:25:00,2,20854029,195259
OK,93,57,874,93,2014-08-02T06:30:00,1,20854478,195259
OK,93,57,874,93,2014-08-02T06:35:00,0,20854927,195259
OK,73,73,874,73,2014-08-02T06:40:00,1,20855376,195259
OK,84,64,874,84,2014-08-02T06:45:00,2,20855825,195259
OK,95,56,874,95,2014-08-02T06:50:00,1,20856274,195259
OK,95,56,874,95,2014-08-02T06:55:00,0,20856723,195259
OK,95,56,874,95,2014-08-02T07:00:00,0,20857172,195259
OK,95,56,874,95,2014-08-02T07:05:00,0,20857621,195259
OK,95,56,874,95,2014-08-02T07:10:00,0,20858070,195259
OK,85,63,874,85,2014-08-02T07:15:00,1,20858519,195259
OK,85,63,874,85,2014-08-02T07:20:00,1,20858968,195259
OK,85,63,874,85,2014-08-02T07:25:00,0,20859417,195259
OK,85,63,874,85,2014-08-02T07:30:00,0,20859866,195259
OK,85,63,874,85,2014-08-02T07:35:00,0,20860315,195259
OK,85,63,874,85,2014-08-02T07:40:00,0,20860764,195259
OK,85,63,874,85,2014-08-02T07:45:00,0,20861213,195259
OK,85,63,874,85,2014-08-02T07:50:00,0,20861662,195259
OK,85,63,874,85,2014-08-02T07:55:00,0,20862111,195259
OK,88,61,874,88,2014-08-02T08:00:00,1,20862560,195259
OK,94,57,874,94,2014-08-02T08:05:00,2,20863009,195259
OK,100,53,874,100,2014-08-02T08:10:00,0,20863458,195259
OK,100,53,874,100,2014-08-02T08:15:00,0,20863907,195259
OK,85,63,874,85,2014-08-02T08:20:00,1,20864356,195259
OK,85,63,874,85,2014-08-02T08:25:00,1,20864805,195259
OK,88,61,874,88,2014-08-02T08:30:00,1,20865254,195259
OK,88,61,874,88,2014-08-02T08:35:00,0,20865703,195259
OK,110,48,874,110,2014-08-02T08:40:00,1,20866152,195259
OK,99,54,874,99,2014-08-02T08:45:00,2,20866601,195259
OK,89,60,874,89,2014-08-02T08:50:00,1,20867050,195259
OK,89,60,874,89,2014-08-02T08:55:00,0,20867499,195259
OK,85,63,874,85,2014-08-02T09:00:00,2,20867948,195259
OK,98,54,874,98,2014-08-02T09:05:00,4,20868397,195259
OK,100,53,874,100,2014-08-02T09:10:00,2,20868846,195259
OK,97,55,874,97,2014-08-02T09:15:00,2,20869295,195259
OK,103,52,874,103,2014-08-02T09:20:00,0,20869744,195259
OK,124,43,874,124,2014-08-02T09:25:00,2,20870193,195259
OK,87,61,874,87,2014-08-02T09:30:00,3,20870642,195259
OK,93,57,874,93,2014-08-02T09:35:00,1,20871091,195259
OK,92,58,874,92,2014-08-02T09:40:00,2,20871540,195259
OK,92,58,874,92,2014-08-02T09:45:00,1,20871989,195259
OK,93,57,874,93,2014-08-02T09:50:00,0,20872438,195259
OK,84,64,874,84,2014-08-02T09:55:00,1,20872887,195259
OK,84,64,874,84,2014-08-02T10:00:00,0,20873336,195259
OK,84,64,874,84,2014-08-02T10:05:00,0,20873785,195259
OK,84,64,874,84,2014-08-02T10:10:00,0,20874234,195259
OK,103,52,874,103,2014-08-02T10:15:00,1,20874683,195259
OK,103,52,874,103,2014-08-02T10:20:00,0,20875132,195259
OK,102,52,874,102,2014-08-02T10:25:00,1,20875581,195259
OK,102,52,874,102,2014-08-02T10:30:00,1,20876030,195259
OK,96,56,874,96,2014-08-02T10:35:00,2,20876479,195259
OK,94,57,874,94,2014-08-02T10:40:00,2,20876928,195259
OK,92,58,874,92,2014-08-02T10:45:00,1,20877377,195259
OK,95,56,874,95,2014-08-02T10:50:00,3,20877826,195259
OK,95,56,874,95,2014-08-02T10:55:00,2,20878275,195259
OK,107,50,874,107,2014-08-02T11:00:00,1,20878724,195259
OK,107,50,874,107,2014-08-02T11:05:00,0,20879173,195259
OK,109,49,874,109,2014-08-02T11:10:00,1,20879622,195259
OK,109,49,874,109,2014-08-02T11:15:00,1,20880071,195259
OK,84,64,874,84,2014-08-02T11:20:00,1,20880520,195259
OK,84,64,874,84,2014-08-02T11:25:00,1,20880969,195259
OK,84,64,874,84,2014-08-02T11:30:00,0,20881418,195259
OK,84,64,874,84,2014-08-02T11:35:00,0,20881867,195259
OK,102,52,874,102,2014-08-02T11:40:00,2,20882316,195259
OK,108,49,874,108,2014-08-02T11:45:00,1,20882765,195259
OK,108,49,874,108,2014-08-02T11:50:00,0,20883214,195259
OK,108,49,874,108,2014-08-02T11:55:00,0,20883663,195259
OK,108,49,874,108,2014-08-02T12:00:00,0,20884112,195259
OK,108,49,874,108,2014-08-02T12:05:00,0,20884561,195259
OK,145,37,874,145,2014-08-02T12:10:00,1,20885010,195259
OK,90,59,874,90,2014-08-02T12:15:00,1,20885459,195259
OK,90,59,874,90,2014-08-02T12:20:00,4,20885908,195259
OK,97,55,874,97,2014-08-02T12:25:00,3,20886357,195259
OK,104,51,874,104,2014-08-02T12:30:00,1,20886806,195259
OK,104,51,874,104,2014-08-02T12:35:00,0,20887255,195259
OK,109,49,874,109,2014-08-02T12:40:00,1,20887704,195259
OK,109,49,874,109,2014-08-02T12:45:00,1,20888153,195259
OK,109,49,874,109,2014-08-02T12:50:00,0,20888602,195259
OK,109,49,874,109,2014-08-02T12:55:00,0,20889051,195259
OK,109,49,874,109,2014-08-02T13:00:00,0,20889500,195259
OK,109,49,874,109,2014-08-02T13:05:00,0,20889949,195259
OK,109,49,874,109,2014-08-02T13:10:00,0,20890398,195259
OK,89,60,874,89,2014-08-02T13:15:00,1,20890847,195259
OK,89,60,874,89,2014-08-02T13:20:00,3,20891296,195259
OK,95,56,874,95,2014-08-02T13:25:00,2,20891745,195259
OK,106,50,874,106,2014-08-02T13:30:00,0,20892194,195259
OK,106,50,874,106,2014-08-02T13:35:00,0,20892643,195259
OK,107,50,874,107,2014-08-02T13:40:00,4,20893092,195259
OK,118,45,874,118,2014-08-02T13:45:00,3,20893541,195259
OK,159,33,874,159,2014-08-02T13:50:00,1,20893990,195259
OK,159,33,874,159,2014-08-02T13:55:00,0,20894439,195259
OK,159,33,874,159,2014-08-02T14:00:00,0,20894888,195259
OK,159,33,874,159,2014-08-02T14:05:00,0,20895337,195259
OK,159,33,874,159,2014-08-02T14:10:00,0,20895786,195259
OK,159,33,874,159,2014-08-02T14:15:00,0,20896235,195259
OK,159,33,874,159,2014-08-02T14:20:00,0,20896684,195259
OK,127,42,874,127,2014-08-02T14:25:00,2,20897133,195259
OK,158,34,874,158,2014-08-02T14:30:00,0,20897582,195259
OK,96,56,874,96,2014-08-02T14:35:00,0,20898031,195259
OK,96,56,874,96,2014-08-02T14:40:00,0,20898480,195259
OK,96,56,874,96,2014-08-02T14:45:00,0,20898929,195259
OK,91,59,874,91,2014-08-02T14:50:00,1,20899378,195259
OK,91,59,874,91,2014-08-02T14:55:00,1,20899827,195259
OK,91,59,874,91,2014-08-02T15:00:00,0,20900276,195259
OK,82,65,874,82,2014-08-02T15:05:00,1,20900725,195259
OK,81,66,874,81,2014-08-02T15:10:00,2,20901174,195259
OK,86,62,874,86,2014-08-02T15:15:00,2,20901623,195259
OK,85,63,874,85,2014-08-02T15:20:00,1,20902072,195259
OK,85,63,874,85,2014-08-02T15:25:00,1,20902521,195259
OK,85,63,874,85,2014-08-02T15:30:00,0,20902970,195259
OK,85,63,874,85,2014-08-02T15:35:00,0,20903419,195259
OK,85,63,874,85,2014-08-02T15:40:00,0,20903868,195259
OK,85,63,874,85,2014-08-02T15:45:00,0,20904317,195259
OK,85,63,874,85,2014-08-02T15:50:00,0,20904766,195259
OK,85,63,874,85,2014-08-02T15:55:00,0,20905215,195259
OK,85,63,874,85,2014-08-02T16:00:00,0,20905664,195259
OK,85,63,874,85,2014-08-02T16:05:00,0,20906113,195259
OK,85,63,874,85,2014-08-02T16:10:00,0,20906562,195259
OK,85,63,874,85,2014-08-02T16:15:00,0,20907011,195259
OK,85,63,874,85,2014-08-02T16:20:00,0,20907460,195259
OK,85,63,874,85,2014-08-02T16:25:00,0,20907909,195259
OK,85,63,874,85,2014-08-02T16:30:00,0,20908358,195259
OK,85,63,874,85,2014-08-02T16:35:00,0,20908807,195259
OK,85,63,874,85,2014-08-02T16:40:00,0,20909256,195259
OK,85,63,874,85,2014-08-02T16:45:00,0,20909705,195259
OK,91,59,874,91,2014-08-02T16:50:00,1,20910154,195259
OK,91,59,874,91,2014-08-02T16:55:00,0,20910603,195259
OK,91,59,874,91,2014-08-02T17:00:00,0,20911052,195259
OK,79,68,874,79,2014-08-02T17:05:00,0,20911501,195259
OK,88,61,874,88,2014-08-02T17:10:00,2,20911950,195259
OK,88,61,874,88,2014-08-02T17:15:00,2,20912399,195259
OK,88,61,874,88,2014-08-02T17:20:00,0,20912848,195259
OK,93,57,874,93,2014-08-02T17:25:00,3,20913297,195259
OK,93,57,874,93,2014-08-02T17:30:00,2,20913746,195259
OK,93,57,874,93,2014-08-02T17:35:00,0,20914195,195259
OK,93,57,874,93,2014-08-02T17:40:00,0,20914644,195259
OK,114,47,874,114,2014-08-02T17:45:00,1,20915093,195259
OK,101,53,874,101,2014-08-02T17:50:00,1,20915542,195259
OK,101,53,874,101,2014-08-02T17:55:00,0,20915991,195259
OK,101,53,874,101,2014-08-02T18:00:00,0,20916440,195259
OK,101,53,874,101,2014-08-02T18:05:00,0,20916889,195259
OK,101,53,874,101,2014-08-02T18:10:00,0,20917338,195259
OK,101,53,874,101,2014-08-02T18:15:00,0,20917787,195259
OK,101,53,874,101,2014-08-02T18:20:00,0,20918236,195259
OK,101,53,874,101,2014-08-02T18:25:00,0,20918685,195259
OK,101,53,874,101,2014-08-02T18:30:00,0,20919134,195259
OK,101,53,874,101,2014-08-02T18:35:00,0,20919583,195259
OK,101,53,874,101,2014-08-02T18:40:00,0,20920032,195259
OK,101,53,874,101,2014-08-02T18:45:00,0,20920481,195259
OK,101,53,874,101,2014-08-02T18:50:00,0,20920930,195259
OK,101,53,874,101,2014-08-02T18:55:00,0,20921379,195259
OK,95,56,874,95,2014-08-02T19:00:00,1,20921828,195259
OK,95,56,874,95,2014-08-02T19:05:00,1,20922277,195259
OK,95,56,874,95,2014-08-02T19:10:00,0,20922726,195259
OK,95,56,874,95,2014-08-02T19:15:00,0,20923175,195259
OK,95,56,874,95,2014-08-02T19:20:00,0,20923624,195259
OK,95,56,874,95,2014-08-02T19:25:00,0,20924073,195259
OK,95,56,874,95,2014-08-02T19:30:00,0,20924522,195259
OK,95,56,874,95,2014-08-02T19:35:00,0,20924971,195259
OK,95,56,874,95,2014-08-02T19:40:00,0,20925420,195259
OK,95,56,874,95,2014-08-02T19:45:00,0,20925869,195259
OK,95,56,874,95,2014-08-02T19:50:00,0,20926318,195259
OK,95,56,874,95,2014-08-02T19:55:00,0,20926767,195259
OK,95,56,874,95,2014-08-02T20:00:00,0,20927216,195259
OK,95,56,874,95,2014-08-02T20:05:00,0,20927665,195259
OK,95,56,874,95,2014-08-02T20:10:00,0,20928114,195259
OK,95,56,874,95,2014-08-02T20:15:00,0,20928563,195259
OK,95,56,874,95,2014-08-02T20:20:00,0,20929012,195259
OK,94,57,874,94,2014-08-02T20:25:00,0,20929461,195259
OK,94,57,874,94,2014-08-02T20:30:00,0,20929910,195259
OK,94,57,874,94,2014-08-02T20:35:00,0,20930359,195259
OK,94,57,874,94,2014-08-02T20:40:00,0,20930808,195259
OK,94,57,874,94,2014-08-02T20:45:00,0,20931257,195259
OK,94,57,874,94,2014-08-02T20:50:00,0,20931706,195259
OK,94,57,874,94,2014-08-02T20:55:00,0,20932155,195259
OK,94,57,874,94,2014-08-02T21:00:00,0,20932604,195259
OK,94,57,874,94,2014-08-02T21:05:00,0,20933053,195259
OK,94,57,874,94,2014-08-02T21:10:00,0,20933502,195259
OK,94,57,874,94,2014-08-02T21:15:00,0,20933951,195259
OK,94,57,874,94,2014-08-02T21:20:00,0,20934400,195259
OK,94,57,874,94,2014-08-02T21:25:00,0,20934849,195259
OK,94,57,874,94,2014-08-02T21:30:00,0,20935298,195259
OK,150,35,874,150,2014-08-02T21:35:00,1,20935747,195259
OK,150,35,874,150,2014-08-02T21:40:00,1,20936196,195259
OK,126,42,874,126,2014-08-02T21:45:00,0,20936645,195259
OK,126,42,874,126,2014-08-02T21:50:00,0,20937094,195259
OK,126,42,874,126,2014-08-02T21:55:00,0,20937543,195259
OK,126,42,874,126,2014-08-02T22:00:00,0,20937992,195259
OK,126,42,874,126,2014-08-02T22:05:00,0,20938441,195259
OK,126,42,874,126,2014-08-02T22:10:00,0,20938890,195259
OK,126,42,874,126,2014-08-02T22:15:00,0,20939339,195259
OK,126,42,874,126,2014-08-02T22:20:00,0,20939788,195259
OK,126,42,874,126,2014-08-02T22:25:00,0,20940237,195259
OK,126,42,874,126,2014-08-02T22:30:00,0,20940686,195259
OK,126,42,874,126,2014-08-02T22:35:00,0,20941135,195259
OK,126,42,874,126,2014-08-02T22:40:00,0,20941584,195259
OK,126,42,874,126,2014-08-02T22:45:00,0,20942033,195259
OK,126,42,874,126,2014-08-02T22:50:00,0,20942482,195259
OK,126,42,874,126,2014-08-02T22:55:00,0,20942931,195259
OK,126,42,874,126,2014-08-02T23:00:00,0,20943380,195259
OK,126,42,874,126,2014-08-02T23:10:00,0,20943829,195259
OK,126,42,874,126,2014-08-02T23:15:00,0,20944278,195259
OK,126,42,874,126,2014-08-02T23:20:00,0,20944727,195259
OK,126,42,874,126,2014-08-02T23:25:00,0,20945176,195259
OK,126,42,874,126,2014-08-02T23:30:00,0,20945625,195259
OK,126,42,874,126,2014-08-02T23:35:00,0,20946074,195259
OK,126,42,874,126,2014-08-02T23:40:00,0,20946523,195259
OK,126,42,874,126,2014-08-02T23:45:00,0,20946972,195259
OK,126,42,874,126,2014-08-02T23:50:00,0,20947421,195259
OK,126,42,874,126,2014-08-02T23:55:00,0,20947870,195259
OK,126,42,874,126,2014-08-03T00:00:00,0,20948319,195259
OK,126,42,874,126,2014-08-03T00:05:00,0,20948768,195259
OK,126,42,874,126,2014-08-03T00:10:00,0,20949216,195259
OK,126,42,874,126,2014-08-03T00:15:00,0,20949665,195259
OK,126,42,874,126,2014-08-03T00:20:00,0,20950114,195259
OK,126,42,874,126,2014-08-03T00:25:00,0,20950563,195259
OK,126,42,874,126,2014-08-03T00:30:00,0,20951012,195259
OK,126,42,874,126,2014-08-03T00:35:00,0,20951461,195259
OK,126,42,874,126,2014-08-03T00:40:00,0,20951910,195259
OK,126,42,874,126,2014-08-03T00:45:00,0,20952359,195259
OK,126,42,874,126,2014-08-03T00:50:00,0,20952808,195259
OK,126,42,874,126,2014-08-03T00:55:00,0,20953257,195259
OK,126,42,874,126,2014-08-03T01:00:00,0,20953706,195259
OK,126,42,874,126,2014-08-03T01:05:00,0,20954155,195259
OK,126,42,874,126,2014-08-03T01:10:00,0,20954604,195259
OK,126,42,874,126,2014-08-03T01:15:00,0,20955053,195259
OK,126,42,874,126,2014-08-03T01:20:00,0,20955502,195259
OK,126,42,874,126,2014-08-03T01:25:00,0,20955951,195259
OK,126,42,874,126,2014-08-03T01:30:00,0,20956400,195259
OK,126,42,874,126,2014-08-03T01:35:00,0,20956849,195259